| time (UTC) | temp F | wind direction | speed MPH | gust MPH | rain 1hr in | rain 24hr in | rain mn in | humidity % | barometer mb |
| 20260502163816 | 63 | 66 | 1.0 | 3.0 | 0.00 | 0.00 | 0.00 | 24 | 1023.3 |
| 20260502162703 | 62 | 99 | 2.0 | 4.0 | 0.00 | 0.00 | 0.00 | 29 | 1023.3 |
| 20260502162019 | 61 | 101 | 1.0 | 4.0 | 0.00 | 0.00 | 0.00 | 26 | 1023.3 |
| 20260502160903 | 60 | 155 | 0.0 | 2.0 | 0.00 | 0.00 | 0.00 | 28 | 1023.4 |
| 20260502160218 | 59 | 248 | 1.0 | 3.0 | 0.00 | 0.00 | 0.00 | 29 | 1023.4 |
| 20260502151803 | 58 | 302 | 0.0 | 2.0 | 0.00 | 0.00 | 0.00 | 29 | 1023.5 |
| 20260502150903 | 56 | 301 | 1.0 | 2.0 | 0.00 | 0.00 | 0.00 | 35 | 1023.6 |
| 20260502123603 | 38 | 300 | 2.0 | 5.0 | 0.00 | 0.00 | 0.00 | 56 | 1023.3 |
| 20260502122703 | 38 | 306 | 2.0 | 4.0 | 0.00 | 0.00 | 0.00 | 55 | 1023.1 |
| 20260502122017 | 38 | 305 | 2.0 | 3.0 | 0.00 | 0.00 | 0.00 | 55 | 1023.1 |
| 20260502121117 | 38 | 313 | 2.0 | 4.0 | 0.00 | 0.00 | 0.00 | 55 | 1023.1 |
| 20260502115403 | 38 | 306 | 2.0 | 4.0 | 0.00 | 0.00 | 0.00 | 54 | 1022.9 |
| 20260502114503 | 38 | 311 | 2.0 | 3.0 | 0.00 | 0.00 | 0.00 | 54 | 1023.0 |
| 20260502113603 | 38 | 307 | 2.0 | 5.0 | 0.00 | 0.00 | 0.00 | 54 | 1022.8 |
| 20260502112703 | 38 | 304 | 2.0 | 4.0 | 0.00 | 0.00 | 0.00 | 54 | 1022.8 |
| 20260502112017 | 38 | 304 | 2.0 | 4.0 | 0.00 | 0.00 | 0.00 | 54 | 1022.7 |
| 20260502111116 | 38 | 304 | 2.0 | 4.0 | 0.00 | 0.00 | 0.00 | 55 | 1022.8 |
| 20260502110003 | 38 | 305 | 2.0 | 4.0 | 0.00 | 0.00 | 0.00 | 55 | 1022.6 |
| 20260502105403 | 38 | 306 | 2.0 | 4.0 | 0.00 | 0.00 | 0.00 | 55 | 1022.8 |
| 20260502104503 | 38 | 305 | 2.0 | 6.0 | 0.00 | 0.00 | 0.00 | 55 | 1022.7 |
| 20260502103603 | 38 | 308 | 2.0 | 5.0 | 0.00 | 0.00 | 0.00 | 55 | 1022.6 |
| 20260502102703 | 39 | 306 | 2.0 | 5.0 | 0.00 | 0.00 | 0.00 | 54 | 1022.6 |
| 20260502101803 | 39 | 311 | 2.0 | 5.0 | 0.00 | 0.00 | 0.00 | 53 | 1022.7 |
| 20260502100903 | 40 | 294 | 2.0 | 6.0 | 0.00 | 0.00 | 0.00 | 52 | 1022.6 |
| 20260502090903 | 40 | 291 | 3.0 | 7.0 | 0.00 | 0.00 | 0.00 | 51 | 1022.6 |
| 20260502070903 | 40 | 300 | 3.0 | 6.0 | 0.00 | 0.01 | 0.00 | 54 | 1022.7 |
| 20260502070003 | 40 | 295 | 3.0 | 6.0 | 0.00 | 0.01 | 0.00 | 54 | 1022.7 |
| 20260502065403 | 40 | 294 | 2.0 | 6.0 | 0.00 | 0.01 | 0.00 | 54 | 1022.7 |
| 20260502064503 | 40 | 296 | 3.0 | 6.0 | 0.00 | 0.01 | 0.00 | 55 | 1022.6 |
| 20260502063603 | 40 | 292 | 3.0 | 6.0 | 0.00 | 0.01 | 0.00 | 56 | 1022.6 |
| 20260502062703 | 40 | 296 | 3.0 | 6.0 | 0.00 | 0.01 | 0.00 | 57 | 1022.4 |
| 20260502061803 | 41 | 295 | 2.0 | 5.0 | 0.00 | 0.01 | 0.00 | 58 | 1022.4 |
| 20260502060903 | 41 | 292 | 2.0 | 7.0 | 0.00 | 0.01 | 0.00 | 59 | 1022.4 |
| 20260502060004 | 41 | 295 | 2.0 | 4.0 | 0.00 | 0.01 | 0.00 | 59 | 1022.4 |
| 20260502055403 | 41 | 294 | 2.0 | 4.0 | 0.00 | 0.01 | 0.01 | 58 | 1022.4 |
| 20260502054503 | 42 | 298 | 2.0 | 5.0 | 0.00 | 0.01 | 0.01 | 58 | 1022.5 |
| 20260502053603 | 42 | 298 | 3.0 | 6.0 | 0.00 | 0.01 | 0.01 | 56 | 1022.3 |
| 20260502052703 | 43 | 297 | 2.0 | 5.0 | 0.00 | 0.01 | 0.01 | 55 | 1022.2 |
| 20260502051803 | 43 | 299 | 3.0 | 4.0 | 0.00 | 0.01 | 0.01 | 54 | 1022.2 |
| 20260502050903 | 44 | 295 | 3.0 | 7.0 | 0.00 | 0.01 | 0.01 | 54 | 1022.2 |
| 20260502050003 | 44 | 294 | 2.0 | 4.0 | 0.00 | 0.01 | 0.01 | 54 | 1022.2 |
| 20260502045403 | 44 | 296 | 3.0 | 7.0 | 0.00 | 0.01 | 0.01 | 54 | 1022.1 |
| 20260502044503 | 44 | 300 | 2.0 | 5.0 | 0.00 | 0.01 | 0.01 | 55 | 1022.0 |
| 20260502043603 | 44 | 309 | 1.0 | 4.0 | 0.00 | 0.01 | 0.01 | 58 | 1022.2 |
| 20260502042703 | 44 | 306 | 1.0 | 3.0 | 0.00 | 0.02 | 0.01 | 59 | 1022.2 |
| 20260502041803 | 44 | 317 | 1.0 | 2.0 | 0.00 | 0.02 | 0.01 | 58 | 1022.0 |
| 20260502040903 | 45 | 0 | 0.0 | 1.0 | 0.00 | 0.02 | 0.01 | 57 | 1021.9 |
| 20260502040003 | 45 | 0 | 0.0 | 0.0 | 0.00 | 0.02 | 0.01 | 58 | 1021.9 |
| 20260502035403 | 45 | 0 | 0.0 | 0.0 | 0.00 | 0.02 | 0.01 | 57 | 1022.0 |
| 20260502034503 | 45 | 0 | 0.0 | 0.0 | 0.00 | 0.02 | 0.01 | 58 | 1022.0 |
| 20260502033603 | 46 | 291 | 0.0 | 2.0 | 0.00 | 0.02 | 0.01 | 58 | 1021.8 |
| 20260502032919 | 46 | 300 | 1.0 | 3.0 | 0.00 | 0.02 | 0.01 | 58 | 1021.7 |
| 20260502031803 | 46 | 56 | 0.0 | 2.0 | 0.00 | 0.02 | 0.01 | 58 | 1021.5 |
| 20260502030903 | 46 | 0 | 0.0 | 0.0 | 0.00 | 0.02 | 0.01 | 56 | 1021.4 |
| 20260502030003 | 47 | 56 | 0.0 | 1.0 | 0.00 | 0.02 | 0.01 | 54 | 1021.3 |
| 20260502025403 | 47 | 56 | 0.0 | 1.0 | 0.00 | 0.02 | 0.01 | 54 | 1021.2 |
| 20260502024503 | 48 | 0 | 0.0 | 0.0 | 0.00 | 0.02 | 0.01 | 52 | 1021.1 |
| 20260502023603 | 48 | 0 | 0.0 | 0.0 | 0.00 | 0.02 | 0.01 | 51 | 1020.9 |
| 20260502022703 | 49 | 0 | 0.0 | 0.0 | 0.00 | 0.02 | 0.01 | 48 | 1020.8 |
| 20260502022018 | 49 | 0 | 0.0 | 0.0 | 0.00 | 0.02 | 0.01 | 48 | 1020.8 |
| 20260502021117 | 50 | 0 | 0.0 | 0.0 | 0.00 | 0.02 | 0.01 | 45 | 1020.7 |
| 20260502020003 | 51 | 0 | 0.0 | 0.0 | 0.00 | 0.02 | 0.01 | 42 | 1020.5 |
| 20260502015403 | 52 | 0 | 0.0 | 0.0 | 0.00 | 0.03 | 0.01 | 42 | 1020.5 |
| 20260502014503 | 53 | 0 | 0.0 | 0.0 | 0.00 | 0.03 | 0.01 | 41 | 1020.4 |
| 20260502013603 | 54 | 0 | 0.0 | 1.0 | 0.00 | 0.03 | 0.01 | 39 | 1020.3 |
| 20260502012703 | 54 | 0 | 0.0 | 1.0 | 0.00 | 0.04 | 0.01 | 40 | 1020.3 |
| 20260502011803 | 54 | 56 | 0.0 | 1.0 | 0.00 | 0.04 | 0.01 | 38 | 1020.2 |
| 20260502010903 | 55 | 56 | 0.0 | 2.0 | 0.00 | 0.04 | 0.01 | 36 | 1020.1 |
| 20260502010003 | 55 | 61 | 1.0 | 3.0 | 0.00 | 0.04 | 0.01 | 37 | 1020.1 |
| 20260502005403 | 55 | 69 | 1.0 | 3.0 | 0.00 | 0.04 | 0.01 | 38 | 1020.0 |
| 20260502004719 | 55 | 91 | 1.0 | 2.0 | 0.00 | 0.05 | 0.01 | 38 | 1020.1 |
| 20260502003818 | 55 | 94 | 0.0 | 1.0 | 0.00 | 0.05 | 0.01 | 39 | 1020.0 |
| 20260502002703 | 56 | 110 | 0.0 | 2.0 | 0.00 | 0.05 | 0.01 | 36 | 1020.0 |
| 20260502001803 | 56 | 72 | 1.0 | 6.0 | 0.00 | 0.05 | 0.01 | 36 | 1020.0 |
| 20260502001116 | 57 | 60 | 2.0 | 6.0 | 0.00 | 0.05 | 0.01 | 37 | 1019.9 |
| 20260502000003 | 57 | 63 | 3.0 | 6.0 | 0.00 | 0.05 | 0.01 | 38 | 1019.8 |
| 20260501235619 | 56 | 62 | 2.0 | 6.0 | 0.00 | 0.05 | 0.01 | 39 | 1019.8 |
| 20260501234503 | 56 | 68 | 1.0 | 4.0 | 0.00 | 0.05 | 0.01 | 36 | 1019.8 |
| 20260501233603 | 57 | 87 | 1.0 | 4.0 | 0.00 | 0.05 | 0.01 | 38 | 1019.8 |
| 20260501232703 | 57 | 105 | 1.0 | 5.0 | 0.00 | 0.05 | 0.01 | 38 | 1019.7 |
| 20260501231803 | 56 | 161 | 1.0 | 4.0 | 0.00 | 0.06 | 0.01 | 38 | 1019.6 |
| 20260501230903 | 56 | 104 | 2.0 | 6.0 | 0.00 | 0.06 | 0.01 | 40 | 1019.4 |
| 20260501230219 | 56 | 93 | 2.0 | 4.0 | 0.00 | 0.06 | 0.01 | 39 | 1019.6 |
| 20260501225403 | 55 | 74 | 1.0 | 3.0 | 0.00 | 0.06 | 0.01 | 41 | 1019.6 |
| 20260501224503 | 55 | 273 | 1.0 | 4.0 | 0.00 | 0.06 | 0.01 | 38 | 1019.5 |
| 20260501223603 | 56 | 281 | 2.0 | 6.0 | 0.00 | 0.06 | 0.01 | 35 | 1019.6 |
| 20260501222917 | 56 | 273 | 2.0 | 6.0 | 0.00 | 0.06 | 0.01 | 36 | 1019.6 |
| 20260501221803 | 56 | 288 | 2.0 | 6.0 | 0.00 | 0.06 | 0.01 | 40 | 1019.8 |
| 20260501220903 | 56 | 322 | 1.0 | 3.0 | 0.00 | 0.06 | 0.01 | 37 | 1019.9 |
| 20260501220003 | 56 | 93 | 1.0 | 4.0 | 0.00 | 0.06 | 0.01 | 38 | 1019.9 |
| 20260501215403 | 56 | 90 | 1.0 | 4.0 | 0.00 | 0.06 | 0.01 | 37 | 1020.0 |
| 20260501214503 | 56 | 213 | 1.0 | 3.0 | 0.00 | 0.06 | 0.01 | 39 | 1020.0 |
| 20260501213603 | 56 | 51 | 1.0 | 5.0 | 0.00 | 0.07 | 0.01 | 38 | 1020.1 |
| 20260501212703 | 56 | 103 | 1.0 | 4.0 | 0.00 | 0.07 | 0.01 | 41 | 1020.2 |
| 20260501211803 | 55 | 88 | 1.0 | 3.0 | 0.00 | 0.07 | 0.01 | 43 | 1020.3 |
| 20260501210903 | 56 | 87 | 2.0 | 5.0 | 0.00 | 0.07 | 0.01 | 41 | 1020.5 |
| 20260501210003 | 57 | 87 | 2.0 | 6.0 | 0.00 | 0.07 | 0.01 | 40 | 1020.5 |
| 20260501205403 | 57 | 113 | 2.0 | 6.0 | 0.00 | 0.07 | 0.01 | 42 | 1020.5 |
| 20260501204503 | 58 | 111 | 1.0 | 3.0 | 0.00 | 0.07 | 0.01 | 41 | 1020.5 |
| 20260501203817 | 57 | 70 | 1.0 | 3.0 | 0.00 | 0.07 | 0.01 | 40 | 1020.7 |
| 20260501202703 | 56 | 66 | 1.0 | 4.0 | 0.00 | 0.07 | 0.01 | 42 | 1020.8 |
| 20260501202015 | 56 | 83 | 2.0 | 5.0 | 0.00 | 0.07 | 0.01 | 46 | 1020.8 |
| 20260501200903 | 55 | 185 | 1.0 | 3.0 | 0.00 | 0.07 | 0.01 | 42 | 1020.8 |
| 20260501200003 | 54 | 256 | 1.0 | 7.0 | 0.00 | 0.07 | 0.01 | 44 | 1021.1 |
| 20260501195403 | 54 | 261 | 2.0 | 7.0 | 0.00 | 0.07 | 0.01 | 43 | 1021.0 |
| 20260501194503 | 56 | 100 | 2.0 | 6.0 | 0.00 | 0.07 | 0.01 | 41 | 1021.0 |
| 20260501193603 | 55 | 70 | 2.0 | 4.0 | 0.00 | 0.07 | 0.01 | 42 | 1021.0 |
| 20260501192703 | 55 | 85 | 1.0 | 5.0 | 0.00 | 0.07 | 0.01 | 43 | 1021.0 |
| 20260501191803 | 55 | 108 | 2.0 | 6.0 | 0.00 | 0.07 | 0.01 | 42 | 1021.1 |
| 20260501191118 | 55 | 100 | 1.0 | 3.0 | 0.00 | 0.07 | 0.01 | 43 | 1021.1 |
| 20260501190003 | 54 | 71 | 1.0 | 3.0 | 0.00 | 0.07 | 0.01 | 47 | 1021.2 |
| 20260501185403 | 53 | 75 | 1.0 | 3.0 | 0.00 | 0.07 | 0.01 | 46 | 1021.4 |
| 20260501184717 | 52 | 97 | 1.0 | 4.0 | 0.00 | 0.07 | 0.01 | 46 | 1021.4 |
| 20260501183603 | 52 | 260 | 1.0 | 3.0 | 0.00 | 0.07 | 0.01 | 46 | 1021.4 |
| 20260501182703 | 51 | 223 | 1.0 | 4.0 | 0.00 | 0.07 | 0.01 | 46 | 1021.4 |
| 20260501181804 | 51 | 264 | 1.0 | 3.0 | 0.00 | 0.07 | 0.01 | 49 | 1021.4 |
| 20260501180903 | 51 | 262 | 1.0 | 4.0 | 0.00 | 0.07 | 0.01 | 49 | 1021.4 |
| 20260501180003 | 51 | 281 | 1.0 | 3.0 | 0.00 | 0.07 | 0.01 | 47 | 1021.6 |
| 20260501175403 | 51 | 299 | 1.0 | 3.0 | 0.00 | 0.07 | 0.01 | 51 | 1021.7 |
| 20260501174503 | 51 | 261 | 1.0 | 3.0 | 0.00 | 0.07 | 0.01 | 49 | 1021.7 |
| 20260501173603 | 51 | 243 | 1.0 | 3.0 | 0.00 | 0.07 | 0.01 | 47 | 1021.8 |
| 20260501172703 | 52 | 171 | 1.0 | 3.0 | 0.00 | 0.07 | 0.01 | 45 | 1021.6 |
| 20260501171803 | 52 | 87 | 2.0 | 4.0 | 0.00 | 0.07 | 0.01 | 47 | 1021.7 |